Location: Pabrico
(37.5827°N, 122.0063°W)
Time: 00:01:40
(UTC+00:00)

YAOGAN 11 - Pass Details

Date: 13 April 2024
Orbit: 606 x 659 km, 98.4° (Epoch: 21 May)

Event Time Altitude Azimuth Distance (km) Brightness Sun altitude
Rises 12:39:12 0° 161° (SSE) 2,932 7.5 -11.4°
Reaches altitude 10° 12:41:22 10° 159° (SSE) 2,035 6.7 -11.0°
Maximum altitude 12:45:48 73° 76° (ENE) 682 4.4 -10.2°
Drops below altitude 10° 12:50:19 10° 351° (N) 2,074 6.9 -9.3°
Sets 12:52:33 0° 350° (N) 2,994 7.7 -8.9°
